This is the latest recevied weather packets stored in our database for station/object IU1WWE-10. If no packets are shown the sender has not sent any weather packets the latest 10 day(s).
| Time | Temp. | Humidity | Pressure | Rain* | Wind** | Luminosity | Snow |
|---|---|---|---|---|---|---|---|
| 1787908803 | 18.89° C | 95% | 1018.5 hPa | 3.81 mm | - | - | - |
| 1787908501 | 18.33° C | 97% | 1018.7 hPa | 3.81 mm | - | - | - |
| 1787908199 | 18.33° C | 96% | 1018.7 hPa | 3.81 mm | - | - | - |
| 1787907896 | 18.33° C | 98% | 1019 hPa | 3.81 mm | - | - | - |
| 1787907594 | 17.78° C | 97% | 1019 hPa | 3.81 mm | - | - | - |
| 1787907292 | 17.22° C | 97% | 1019.3 hPa | 3.3 mm | - | - | - |
| 1787906990 | 17.22° C | 96% | 1019.3 hPa | 2.79 mm | - | - | - |
| 1787906688 | 17.22° C | 96% | 1019.5 hPa | 2.29 mm | - | - | - |
| 1787906386 | 17.22° C | 96% | 1019.1 hPa | 2.29 mm | - | - | - |
| 1787906084 | 17.22° C | 97% | 1019 hPa | 2.29 mm | - | - | - |
| 1787905782 | 17.22° C | 97% | 1018.8 hPa | 2.29 mm | - | - | - |
| 1787905480 | 17.22° C | 97% | 1018.6 hPa | 2.29 mm | - | - | - |
| 1787905178 | 17.22° C | 97% | 1019.1 hPa | 2.29 mm | - | - | - |
| 1787904876 | 17.22° C | 97% | 1019.2 hPa | 2.29 mm | - | - | - |
| 1787904574 | 17.22° C | 97% | 1019 hPa | 2.29 mm | - | - | - |
| 1787904272 | 17.22° C | 97% | 1018.8 hPa | 2.29 mm | - | - | - |
| 1787903969 | 17.22° C | 97% | 1018.7 hPa | 2.03 mm | - | - | - |
| 1787903667 | 17.22° C | 97% | 1018.6 hPa | 2.03 mm | - | - | - |
| 1787903359 | 16.67° C | 97% | 1019.1 hPa | 2.03 mm | - | - | - |
| 1787903057 | 16.67° C | 97% | 1019.1 hPa | 1.78 mm | - | - | - |
| 1787902755 | 16.67° C | 97% | 1019 hPa | 1.52 mm | - | - | - |
| 1787902453 | 16.67° C | 97% | 1019 hPa | 1.52 mm | - | - | - |
| 1787902151 | 16.67° C | 97% | 1019.1 hPa | 1.52 mm | - | - | - |
| 1787901849 | 16.67° C | 97% | 1019.1 hPa | 1.27 mm | - | - | - |
| 1787901547 | 16.67° C | 97% | 1018.9 hPa | 1.27 mm | - | - | - |
* Rain since midnight (hover to see other rain measurements)
** Current wind speed in m/s (hover to see current wind gust speed)